#timestamp,LO_Frequency,Hit 
1505844015.3,286046993.7,N
1505844035.1,286046997.2,N
1505844055.9,286046999.9,N
1505844075.7,286047004.0,N
1505844095.5,286047005.2,N
1505844115.4,286047001.1,N
1505844135.2,286046995.0,N
1505844155.0,286046991.7,N
1505844155.9,286046991.7,N
1505844175.8,286046990.7,N
1505844195.6,286046991.3,N
1505844215.4,286046991.6,N
1505844235.3,286046991.0,N
1505844255.1,286046993.1,N
1505844256.0,286046993.1,N
1505844275.8,286046991.8,N
1505844295.7,286047001.1,N
1505844315.5,286046999.0,N
1505844335.3,286046997.6,N
1505844355.1,286047000.8,N
1505844375.9,286047001.7,N
1505844395.7,286047005.7,N
1505844415.5,286047002.6,N
1505844435.4,286046996.5,N
1505844455.2,286046993.8,N
1505844475.0,286046994.2,N
1505844475.9,286046994.2,N
1505844495.8,286046997.3,N
1505844515.6,286046995.0,N
1505844535.4,286046994.2,N
1505844555.3,286046993.1,N
1505844575.1,286046992.6,N
1505844576.0,286046992.6,N
1505844595.8,286046989.3,N
1505844615.7,286046991.2,N
1505844635.5,286046991.1,N
1505844655.3,286046993.6,N
1505844675.2,286046999.4,N
1505844695.9,286047000.7,N
1505844715.7,286046999.7,N
1505844735.5,286047002.8,N
1505844755.4,286046996.4,N
1505844775.2,286046992.5,N
1505844795.0,286046992.2,N
1505844795.9,286046992.2,N
1505844815.8,286046992.7,N
1505844835.6,286046992.3,N
1505844855.4,286046993.3,N
1505844875.3,286046999.2,N
1505844895.1,286046993.5,N
1505844915.8,286046997.0,N
1505844935.7,286046996.4,N
1505844955.5,286046990.6,N
1505844975.3,286046990.3,P
1505844995.2,286046993.4,P
1505845015.9,286046996.1,N
1505845035.7,286046997.0,N
1505845055.6,286046998.1,N
1505845075.4,286047002.1,N
1505845095.2,286047002.9,N
1505845115.1,286047001.3,N
1505845116.0,286047001.3,N
1505845135.8,286047004.5,N
1505845155.6,286047004.6,N
1505845175.4,286046999.9,N
1505845195.3,286047004.0,N
1505845215.1,286047001.6,N
1505845235.8,286047000.3,N
1505845255.7,286046998.1,N
1505845275.5,286046998.7,N
1505845295.3,286047005.9,N
1505845315.2,286047007.9,N
1505845335.9,286047008.0,N
1505845355.7,286047005.0,N
1505845375.6,286047004.3,N
1505845395.4,286047004.4,N
1505845415.2,286047001.3,N
1505845435.1,286047001.2,N
1505845436.0,286047001.2,N
1505845455.8,286047004.0,N
1505845475.6,286047003.2,N
1505845495.4,286047003.4,N
1505845515.3,286047001.6,N
1505845535.1,286047003.7,N
1505845555.8,286047009.5,N
1505845575.7,286047003.0,N
1505845595.5,286047002.2,N
1505845615.3,286047000.9,N
1505845635.2,286047000.9,N
1505845655.9,286047000.1,N
1505845675.7,286047002.8,N
1505845695.6,286047004.1,N
1505845715.4,286047002.0,N
1505845735.2,286046998.6,N
1505845755.1,286046999.6,N
1505845756.0,286046999.6,N
1505845775.8,286046997.1,N
1505845795.6,286046999.1,N
1505845815.5,286046999.1,N
1505845835.3,286047002.0,N
1505845855.1,286047001.7,N
1505845875.8,286046999.7,N
1505845895.7,286047002.1,N
1505845915.5,286047006.4,N
1505845935.3,286047004.8,N
1505845955.2,286047003.0,N
1505845975.9,286047001.5,N
1505845995.7,286047003.0,N
1505846015.6,286047009.1,P
1505846035.4,286047003.5,N
1505846055.2,286047002.1,N
1505846075.1,286047002.2,N
1505846076.0,286047002.2,N
1505846095.8,286047002.0,N
1505846115.6,286047002.0,N
1505846135.5,286047001.4,N
1505846155.3,286047003.8,N
1505846175.1,286047005.7,N
1505846195.9,286047006.4,N
1505846215.7,286047012.1,P
1505846235.5,286047011.8,N
1505846255.4,286047007.1,N
1505846275.2,286047004.4,N
1505846295.0,286047008.6,N
1505846295.9,286047008.6,N
1505846315.8,286047009.2,N
1505846335.6,286047004.2,N
1505846355.4,286047000.8,N
1505846375.2,286046998.3,N
1505846395.1,286047000.2,N
1505846396.0,286047000.2,N
1505846415.8,286047001.3,N
1505846435.6,286047001.9,N
1505846455.5,286047003.1,N
1505846475.3,286047001.5,N
1505846495.1,286047003.9,N
1505846515.9,286047000.1,N
1505846535.7,286047000.0,N
1505846555.5,286047005.2,N
1505846575.4,286047005.5,N
1505846595.2,286047004.3,N
1505846615.0,286047005.9,N
1505846615.9,286047005.9,N
1505846635.8,286047003.0,N
1505846655.6,286047001.9,N
1505846675.4,286047004.4,N
1505846695.2,286047002.9,N
1505846715.1,286047002.0,N
1505846716.0,286047002.0,N
1505846735.8,286046998.1,N
1505846755.6,286046999.5,N
1505846775.5,286047000.5,N
1505846795.3,286047001.4,N
1505846815.1,286047003.0,N
1505846835.9,286047003.0,N
1505846855.7,286047003.6,N
1505846875.5,286047009.2,P
1505846895.4,286047010.1,N
1505846915.2,286047008.5,N
1505846935.0,286047009.1,N
1505846936.0,286047009.1,P
1505846955.8,286046996.6,P
1505846975.6,286046999.1,N
1505846995.4,286046998.4,N
1505847015.3,286047002.6,N
1505847035.1,286047005.4,N
1505847055.8,286047002.4,N
1505847075.7,286047005.1,N
1505847095.5,286047003.6,N
1505847115.3,286046999.6,N
1505847135.2,286046994.1,N
1505847155.9,286046995.9,N
1505847175.7,286046997.6,N
1505847195.6,286046993.5,N
1505847215.4,286046993.3,N
1505847235.2,286046997.4,N
1505847255.0,286046999.2,N
1505847255.9,286046999.2,N
1505847275.8,286046999.4,N
1505847295.6,286046999.1,N
1505847315.4,286046996.9,N
1505847335.3,286046997.8,N
1505847355.1,286046993.4,N
1505847375.8,286046994.6,N
1505847395.7,286046993.9,N
1505847415.5,286046993.9,N
1505847435.3,286046994.1,N
1505847455.2,286046996.0,N
1505847475.9,286046999.5,N
1505847495.7,286046998.1,N
1505847515.6,286047000.6,N
1505847535.4,286047000.0,N
1505847555.2,286047002.8,N
1505847575.0,286047006.1,N
1505847575.9,286047006.1,N
1505847595.8,286047010.1,N
